Simultaneous Nadir Overpasses (SNOs) Predictions

Prediction of SNOs between NOAA-20 and PACE Satellite Orbit:

Table of predicted SNOs for the next 14.0 days since TLE Epoch: 7/6/2024
Index Date (NOAA-20) Time (NOAA-20) Lat,Lon (NOAA-20) SZA (NOAA-20 ) Date (PACE) Time (PACE) Lat,Lon (PACE) SZA (PACE ) Distance(km) Time Diff (sec)
1 07/06/2024 15:15:41 -80.06, 91.88 120.03 07/06/2024 15:16:16 -80.05, 92.04 120.07 3.12 35
2 07/06/2024 16:06:18 79.79, -98.22 59.48 07/06/2024 16:05:19 79.80, -98.33 59.53 2.14 59
3 07/08/2024 19:42:06 -79.99, 25.92 119.89 07/08/2024 19:42:14 -79.99, 25.99 119.91 1.36 8
4 07/10/2024 23:18:36 81.05, 136.12 63.07 07/10/2024 23:19:49 81.33, 136.82 63.08 32.95 73
5 07/11/2024 00:08:29 -79.87, -39.50 119.84 07/11/2024 00:08:10 -79.88, -39.64 119.81 3.15 19
6 07/13/2024 03:44:16 80.00, 85.30 60.72 07/13/2024 03:45:03 80.01, 85.15 60.72 2.99 47
7 07/13/2024 04:34:56 -79.87,-106.11 119.52 07/13/2024 04:34:08 -79.86,-105.99 119.52 2.61 48
8 07/15/2024 08:10:42 79.98, 18.93 61.02 07/15/2024 08:11:00 79.97, 18.94 61.00 0.33 18
9 07/15/2024 08:59:52 -76.34,-152.67 124.30 07/15/2024 08:58:39 -76.03,-154.50 124.38 59.33 73
10 07/17/2024 12:37:07 79.92, -47.18 61.29 07/17/2024 12:36:56 79.92, -47.13 61.29 0.96 11
11 07/19/2024 16:12:51 -80.01, 78.08 118.17 07/19/2024 16:13:46 -80.01, 77.93 118.17 2.98 55



Historial Predications of SNOs between NOAA-20 and PACE
